Location: Falconara Alta
(43.6167°N, 13.4000°E)
Time: 06:24:42
(UTC+00:00)

USA 234 - Visible Passes

Search period start: 11 August 2020 00:00
Search period end: 21 August 2020 00:00
Orbit: 1101 x 1106 km, 123.0° (Epoch: 09 August)

Date Brightness Start Highest point End Pass type
(mag) Time Alt. Az. Time Alt. Az. Time Alt. Az.
11 Aug 3.9 19:52:31 15° E 19:57:39 48° NNE 20:03:51 10° NW visible
11 Aug 3.2 21:39:52 61° SSW 21:40:31 64° SW 21:47:01 10° NW visible
11 Aug 5.3 23:27:13 12° W 23:27:13 12° W 23:28:01 10° W visible
12 Aug 4.5 19:09:34 10° E 19:15:19 34° NNE 19:21:05 10° NW visible
12 Aug 3.3 20:55:19 42° ESE 20:57:45 75° NE 21:04:17 10° NW visible
12 Aug 4.4 22:42:41 30° WSW 22:42:41 30° WSW 22:46:55 10° WNW visible
13 Aug 3.9 20:10:46 19° E 20:15:13 48° NNE 20:21:26 10° NW visible
13 Aug 3.2 21:58:07 64° SW 21:58:07 64° SW 22:04:36 10° NW visible
13 Aug 5.4 23:45:28 10° W 23:45:28 10° W 23:45:33 10° W visible
14 Aug 4.5 19:27:08 10° E 19:32:53 34° NNE 19:38:39 10° NW visible
14 Aug 3.3 21:13:34 51° ESE 21:15:19 76° NE 21:21:52 10° NW visible
14 Aug 4.5 23:00:54 27° W 23:00:54 27° W 23:04:28 10° WNW visible
15 Aug 4.8 18:45:19 10° ENE 18:50:43 28° N 18:56:06 10° NW visible
15 Aug 3.9 20:29:00 23° E 20:32:48 48° NNE 20:39:00 10° NW visible
15 Aug 3.4 22:16:20 60° WSW 22:16:20 60° WSW 22:22:10 10° NW visible
16 Aug 4.5 19:44:42 10° E 19:50:27 34° NNE 19:56:14 10° NW visible
16 Aug 3.2 21:31:46 62° E 21:32:54 76° NE 21:39:27 10° NW visible
16 Aug 4.7 23:19:07 24° W 23:19:07 24° W 23:22:03 10° WNW visible
17 Aug 4.8 19:02:52 10° ENE 19:08:17 29° N 19:13:41 10° NW visible
17 Aug 3.9 20:47:12 28° E 20:50:22 48° NNE 20:56:35 10° NW visible
17 Aug 3.6 22:34:32 53° W 22:34:32 53° W 22:39:45 10° NW visible
18 Aug 4.5 20:02:37 11° ENE 20:08:02 35° NNE 20:13:48 10° NW visible
18 Aug 3.2 21:49:57 72° ENE 21:50:29 76° NE 21:57:01 10° NW visible
18 Aug 4.9 23:37:17 20° W 23:37:17 20° W 23:39:36 10° WNW visible
19 Aug 4.8 19:20:27 10° ENE 19:25:51 29° N 19:31:15 10° NW visible
19 Aug 3.9 21:05:22 33° E 21:07:56 49° NNE 21:14:11 10° NW visible
19 Aug 3.9 22:52:42 46° WNW 22:52:42 46° WNW 22:57:19 10° NW visible
20 Aug 4.9 18:38:25 10° NE 18:43:44 27° N 18:49:03 10° WNW visible
20 Aug 4.5 20:20:47 14° ENE 20:25:36 35° NNE 20:31:22 10° NW visible
20 Aug 3.2 22:08:07 77° NNE 22:08:07 77° NNE 22:14:36 10° NW visible
20 Aug 5.0 23:55:27 18° WNW 23:55:27 18° WNW 23:57:11 10° WNW visible
